BAW584 EGLL-LIMC

Flight info

Callsign BAW584
Flight time N/A
Altitude 23000
Route MODMI1J MODMI M185 MID L612 BOGNA/N0446F370 UL612 HAWKE/N0451F390 UL612 VEULE DCT TEPRI UN491 POGZI DCT GELTA DCT LUVAL DCT SHARA DCT DEVDI DCT BASGO/N0445F290 Z424 AKASU/N0376F190 Z424 RIXUV RIXUV3E
Aircraft A319/M-SDE3FGIJ1KRWXY/LB1

Departure

Time 2026-05-06 09:58
Airport London Heathrow Airport (EGLL)

Arrival

Time N/A
Airport Milan Malpensa International Airport (LIMC)
Time Latitude Longitude Altitude Speed Heading
2026-05-06 09:40 51.46932 -0.48715 86 ft 0 kts 359°
2026-05-06 09:51 51.46925 -0.48715 86 ft 4 kts 359°
2026-05-06 09:51 51.46899 -0.48715 88 ft 2 kts 359°
2026-05-06 09:51 51.46881 -0.48718 88 ft 4 kts 56°
2026-05-06 09:51 51.46876 -0.48753 87 ft 4 kts 89°
2026-05-06 09:52 51.46876 -0.48792 86 ft 1 kts 89°
2026-05-06 09:52 51.46876 -0.48793 86 ft 0 kts 89°
2026-05-06 09:54 51.46876 -0.48788 86 ft 1 kts 89°
2026-05-06 09:54 51.46870 -0.48765 87 ft 3 kts 123°
2026-05-06 09:55 51.46844 -0.48749 88 ft 5 kts 173°
2026-05-06 09:55 51.46801 -0.48749 86 ft 0 kts 180°
2026-05-06 09:55 51.46776 -0.48750 86 ft 11 kts 180°
2026-05-06 09:56 51.46680 -0.48749 86 ft 15 kts 176°
2026-05-06 09:56 51.46612 -0.48761 86 ft 1 kts 198°
2026-05-06 09:56 51.46606 -0.48765 90 ft 0 kts 198°
2026-05-06 09:56 51.46603 -0.48766 90 ft 3 kts 198°
2026-05-06 09:57 51.46560 -0.48787 87 ft 10 kts 192°
2026-05-06 09:57 51.46494 -0.48745 86 ft 12 kts 126°
2026-05-06 09:57 51.46478 -0.48639 86 ft 0 kts 89°
2026-05-06 09:57 51.46479 -0.48487 86 ft 39 kts 89°
2026-05-06 09:58 51.46481 -0.47703 86 ft 101 kts 90°
2026-05-06 09:58 51.46485 -0.46232 92 ft 156 kts 90°
2026-05-06 09:58 51.46489 -0.44439 570 ft 166 kts 84°
2026-05-06 09:58 51.46504 -0.42600 1317 ft 169 kts 86°
2026-05-06 09:59 51.46151 -0.40651 1722 ft 203 kts 119°
2026-05-06 09:59 51.45276 -0.38700 2218 ft 229 kts 126°
2026-05-06 09:59 51.43876 -0.37187 2809 ft 259 kts 158°
2026-05-06 09:59 51.42145 -0.36194 3744 ft 270 kts 160°
2026-05-06 10:00 51.40257 -0.35727 4687 ft 282 kts 186°
2026-05-06 10:00 51.38391 -0.36715 5566 ft 287 kts 210°
2026-05-06 10:00 51.36611 -0.38145 5884 ft 285 kts 210°
2026-05-06 10:00 51.34833 -0.39558 6014 ft 285 kts 210°
2026-05-06 10:01 51.33044 -0.40968 6826 ft 285 kts 209°
2026-05-06 10:01 51.31229 -0.42260 7868 ft 289 kts 198°
2026-05-06 10:01 51.29213 -0.42556 8775 ft 298 kts 174°
2026-05-06 10:01 51.27162 -0.41982 9769 ft 300 kts 169°
2026-05-06 10:02 51.25064 -0.41345 10387 ft 317 kts 169°
2026-05-06 10:02 51.22818 -0.40664 10742 ft 339 kts 169°
2026-05-06 10:02 51.20455 -0.39955 11332 ft 349 kts 169°
2026-05-06 10:02 51.18060 -0.39240 12185 ft 352 kts 170°
2026-05-06 10:03 51.15641 -0.38516 13041 ft 354 kts 170°
2026-05-06 10:03 51.13200 -0.37786 13792 ft 360 kts 171°
2026-05-06 10:03 51.10733 -0.37055 14529 ft 362 kts 171°
2026-05-06 10:03 51.08240 -0.36319 15206 ft 366 kts 171°
2026-05-06 10:04 51.05720 -0.35576 15886 ft 371 kts 171°
2026-05-06 10:04 51.03176 -0.34825 16626 ft 372 kts 171°
2026-05-06 10:04 51.00624 -0.34068 16917 ft 374 kts 171°
2026-05-06 10:04 50.98060 -0.33311 17316 ft 376 kts 171°
2026-05-06 10:05 50.95509 -0.32560 17997 ft 378 kts 171°
2026-05-06 10:05 50.92911 -0.31795 18634 ft 382 kts 171°
2026-05-06 10:05 50.90291 -0.31027 19269 ft 385 kts 172°
2026-05-06 10:05 50.87615 -0.30242 19889 ft 388 kts 172°
2026-05-06 10:06 50.84949 -0.29461 20506 ft 391 kts 171°
2026-05-06 10:06 50.82297 -0.28687 21150 ft 393 kts 172°
2026-05-06 10:06 50.79594 -0.27900 21764 ft 396 kts 171°
2026-05-06 10:06 50.76874 -0.27109 22390 ft 398 kts 171°
2026-05-06 10:07 50.74136 -0.26313 22974 ft 401 kts 172°
2026-05-06 10:07 50.71408 -0.25296 23534 ft 406 kts 163°
2026-05-06 10:07 50.68792 -0.23552 24003 ft 412 kts 154°
2026-05-06 10:07 50.66357 -0.21137 24464 ft 416 kts 148°
2026-05-06 10:08 50.63948 -0.18583 24934 ft 418 kts 148°
2026-05-06 10:08 50.61527 -0.16037 25418 ft 419 kts 148°
2026-05-06 10:08 50.59087 -0.13489 25896 ft 422 kts 148°
2026-05-06 10:08 50.56638 -0.10943 26359 ft 424 kts 148°
2026-05-06 10:09 50.54163 -0.08371 26817 ft 427 kts 148°
2026-05-06 10:09 50.51677 -0.05792 27274 ft 429 kts 148°
2026-05-06 10:09 50.49178 -0.03202 27728 ft 432 kts 148°
2026-05-06 10:09 50.46661 -0.00591 28181 ft 434 kts 148°
2026-05-06 10:10 50.44136 0.02031 28653 ft 436 kts 148°
2026-05-06 10:10 50.41603 0.04665 29091 ft 438 kts 148°
2026-05-06 10:10 50.39051 0.07312 29501 ft 441 kts 148°
2026-05-06 10:10 50.36483 0.09973 29907 ft 444 kts 148°
2026-05-06 10:11 50.33898 0.12647 30267 ft 446 kts 148°
2026-05-06 10:11 50.31301 0.15324 30602 ft 449 kts 148°
2026-05-06 10:11 50.28688 0.18014 30933 ft 451 kts 148°
2026-05-06 10:11 50.26061 0.20713 31254 ft 453 kts 148°
2026-05-06 10:12 50.23419 0.23421 31597 ft 454 kts 148°
2026-05-06 10:12 50.20813 0.26090 32050 ft 453 kts 147°
2026-05-06 10:12 50.18185 0.28790 32513 ft 452 kts 147°
2026-05-06 10:12 50.15566 0.31486 32990 ft 450 kts 147°
2026-05-06 10:13 50.12954 0.34175 33461 ft 449 kts 146°
2026-05-06 10:13 50.10348 0.36853 33933 ft 448 kts 146°
2026-05-06 10:13 50.07743 0.39523 34331 ft 447 kts 147°
2026-05-06 10:13 50.05142 0.42180 34695 ft 447 kts 147°
2026-05-06 10:14 50.02544 0.44832 35053 ft 447 kts 147°
2026-05-06 10:14 49.99934 0.47496 35379 ft 448 kts 147°
2026-05-06 10:14 49.97325 0.50154 35686 ft 449 kts 147°
2026-05-06 10:14 49.95561 0.51949 35878 ft 449 kts 147°
2026-05-06 10:15 49.92092 0.55474 36253 ft 451 kts 147°
2026-05-06 10:15 49.90352 0.57242 36459 ft 451 kts 148°
2026-05-06 10:15 49.87732 0.59909 36772 ft 451 kts 147°
2026-05-06 10:15 49.85260 0.62908 37071 ft 452 kts 138°
2026-05-06 10:16 49.83087 0.66401 37366 ft 453 kts 133°
2026-05-06 10:16 49.80958 0.70035 37673 ft 453 kts 133°
2026-05-06 10:16 49.78831 0.73646 37975 ft 452 kts 134°
2026-05-06 10:16 49.76704 0.77238 38252 ft 452 kts 134°
2026-05-06 10:17 49.74578 0.80817 38546 ft 452 kts 134°
2026-05-06 10:17 49.72438 0.84413 38745 ft 453 kts 134°
2026-05-06 10:17 49.70304 0.88002 38904 ft 454 kts 134°
2026-05-06 10:17 49.68168 0.91601 38939 ft 454 kts 134°
2026-05-06 10:18 49.63911 0.98767 38947 ft 453 kts 134°
2026-05-06 10:18 49.59674 1.05873 38943 ft 452 kts 134°
2026-05-06 10:19 49.55407 1.12994 38944 ft 452 kts 134°
2026-05-06 10:19 49.51134 1.20112 38944 ft 452 kts 135°
2026-05-06 10:20 49.46866 1.27215 38955 ft 452 kts 134°
2026-05-06 10:20 49.42591 1.34299 38953 ft 451 kts 135°
2026-05-06 10:21 49.38318 1.41363 38953 ft 451 kts 135°
2026-05-06 10:21 49.34044 1.48410 38951 ft 451 kts 134°
2026-05-06 10:22 49.29764 1.55442 38949 ft 451 kts 135°
2026-05-06 10:22 49.25481 1.62460 38941 ft 451 kts 135°
2026-05-06 10:23 49.21192 1.69484 38940 ft 451 kts 135°
2026-05-06 10:23 49.16931 1.76449 38939 ft 451 kts 135°
2026-05-06 10:24 49.12607 1.83465 38941 ft 450 kts 135°
2026-05-06 10:24 49.08310 1.90415 38945 ft 449 kts 135°
2026-05-06 10:25 49.04054 1.97296 38943 ft 449 kts 135°
2026-05-06 10:25 48.99774 2.04209 38936 ft 448 kts 135°
2026-05-06 10:26 48.95493 2.11103 38942 ft 448 kts 135°
2026-05-06 10:26 48.91203 2.17982 38934 ft 448 kts 135°
2026-05-06 10:27 48.86908 2.24855 38930 ft 448 kts 135°
2026-05-06 10:27 48.82606 2.31725 38931 ft 449 kts 135°
2026-05-06 10:28 48.78309 2.38578 38932 ft 448 kts 135°
2026-05-06 10:28 48.74001 2.45419 38934 ft 448 kts 135°
2026-05-06 10:29 48.69685 2.52242 38936 ft 449 kts 135°
2026-05-06 10:29 48.65361 2.59058 38909 ft 449 kts 135°
2026-05-06 10:30 48.61035 2.65863 38902 ft 448 kts 136°
2026-05-06 10:30 48.57149 2.73129 38909 ft 452 kts 120°
2026-05-06 10:31 48.55098 2.82095 38913 ft 456 kts 99°
2026-05-06 10:31 48.54698 2.91671 38909 ft 458 kts 95°
2026-05-06 10:32 48.54368 3.01278 38905 ft 458 kts 95°
2026-05-06 10:32 48.54029 3.10892 38912 ft 458 kts 95°
2026-05-06 10:33 48.53695 3.20498 38907 ft 458 kts 95°
2026-05-06 10:33 48.53355 3.30035 38905 ft 458 kts 95°
2026-05-06 10:34 48.53002 3.39628 38908 ft 457 kts 95°
2026-05-06 10:34 48.52635 3.49207 38895 ft 457 kts 95°
2026-05-06 10:35 48.52260 3.58781 38894 ft 457 kts 95°
2026-05-06 10:35 48.51882 3.68363 38890 ft 457 kts 95°
2026-05-06 10:36 48.51499 3.77933 38889 ft 457 kts 95°
2026-05-06 10:36 48.51108 3.87494 38884 ft 457 kts 95°
2026-05-06 10:37 48.50703 3.97051 38899 ft 456 kts 95°
2026-05-06 10:37 48.49720 4.06438 38896 ft 453 kts 107°
2026-05-06 10:38 48.48056 4.15543 38898 ft 453 kts 107°
2026-05-06 10:38 48.46390 4.24703 38891 ft 453 kts 107°
2026-05-06 10:39 48.44718 4.33852 38875 ft 453 kts 108°
2026-05-06 10:39 48.43033 4.43000 38865 ft 454 kts 108°
2026-05-06 10:40 48.41333 4.52158 38855 ft 454 kts 108°
2026-05-06 10:40 48.39633 4.61319 38860 ft 455 kts 108°
2026-05-06 10:41 48.37918 4.70471 38850 ft 454 kts 108°
2026-05-06 10:41 48.36191 4.79626 38841 ft 455 kts 108°
2026-05-06 10:42 48.34460 4.88786 38836 ft 456 kts 108°
2026-05-06 10:42 48.32719 4.97947 38838 ft 456 kts 108°
2026-05-06 10:43 48.30967 5.07108 38835 ft 456 kts 108°
2026-05-06 10:44 48.28310 5.20866 38827 ft 456 kts 109°
2026-05-06 10:44 48.26478 5.29986 38834 ft 456 kts 110°
2026-05-06 10:45 48.24636 5.39033 38835 ft 456 kts 109°
2026-05-06 10:45 48.22785 5.48141 38836 ft 456 kts 109°
2026-05-06 10:46 48.20942 5.57236 38815 ft 456 kts 110°